Skip Navigation Links
NOAA logo - Click to go to the NOAA homepage
NOAA's National Weather Service
Alaska Aviation Weather Unit
  NWS logo - Click to go to the NWS homepage
Left Navbar Graphic     10 AKDT = 18 GMT

   
NOAA is celebrating 200 years of science, service, and stewardship. Visit the NOAA 200th celebration Web site to learn more.
USA.gov is the U.S. Government's official Web portal to all Federal, state and local government Web resources and services.
Facebook
NWS on Facebook

Important Change Regarding the AAWU Web Presence

 

Over the last several months, the AAWU has been working to navigate its webpages to a nationally supported server. Security, as well as other needs, have necessitated the change.  We have been given an extension for the site changeover while we diligently work at addressing feedback received. As of July 14, 2017, aawu.arh.noaa.gov will be discontinued. The new AAWU web address is weather.gov/aawu. It is now live and will run in-parallel with the old site until it is discontinued on July 14, 2017. Please continue to send any feedback or questions regarding the new webpages to nws.ar.aawu.webauthors@noaa.gov.  Thank you for your patience during this time of transition.
AAWU Home :: Display TAF Add Bookmark
METAR PAKU 261248Z 22010KT 10SM R24/P6000FT OVC035 M01/M03 A3011=

METAR PAKU 261350Z 24013G18KT 10SM R24/P6000FT OVC035 M00/M03 A3011=

METAR PAKU 261445Z 24011KT 10SM R24/P6000FT SCT032 M01/M03 A3011=

METAR PAKU 261545Z 24010KT 10SM R24/P6000FT BKN036 M02/M03 A3012=

PAKU 261645Z 23013KT 10SM R24/P6000FT FEW005 BKN038 M01/M02
     A3012=

PAKU 261745Z 22014KT 10SM R24/P6000FT FEW007 BKN040 M01/M02
     A3012=


NOAA's National Weather Service
Alaska Aviation Weather Unit
6930 Sand Lake Road
Anchorage, AK 99502-1845
Disclaimer
Credits
Glossary
Privacy Policy
About Us
Career Opportunities
Contact AAWU Internet Services Site last modified: April, 17th 2012